User: anonymous   Login
Location: Northam
(31.6525°S, 116.6655°E)
Time: 17:19:50
(UTC+08:00)
Language:

CAS-4B - Orbit

View from above orbital plane
View from above orbital plane
View from above satellite
View from above satellite

Ground track
Ground track

The orbit data is extracted from the following two-line orbital elements,

1 42759U 17034B   21216.58017495  .00000418  00000-0  38354-4 0  9993
2 42759  43.0174 276.4877 0007008 104.0283  12.8717 15.10296524228421
Epoch (UTC): 04 August 2021 13:55:27
Eccentricity: 0.0007008
inclination: 43.0174°
perigee height: 530 km
apogee height: 540 km
right ascension of ascending node: 276.4877°
argument of perigee: 104.0283°
revolutions per day: 15.10296524
mean anomaly at epoch: 12.8717°
orbit number at epoch: 22842

The dashed part of the orbit path shows where the satellite is in the earth's shadow,  

DLR